Вернуться в каталог

STARLINK-33980

АктивенСвязьVLEO
NORAD 63930·PAYLOAD·🇺🇸 United States

Запущен May 13, 2025 с Vandenberg Space Force Base

Loading…

Ближайшие Пролёты (ближайшие 24 часа)

TLE

СвежийSource: CelesTrak SupGP

Эпоха: Sep 14, 2026, 23:12 UTC

1 63930C 25098E   26257.96715278 -.00030023  00000+0 -10443-2 0  2572
2 63930  70.0004 155.6589 0003274 272.4980  91.7850 15.29596665    16

Отслеживайте STARLINK-33980 в реальном времени с AllMySat

Download on the App Store